Location: S�deilles
(46.7500°N, 6.9329°E)
Time: 17:44:58
(UTC+00:00)

Ariane Rocket - Pass Details

Date: 08 March 2021
Orbit: 759 x 770 km, 98.7° (Epoch: 23 April)

Event Time Altitude Azimuth Distance (km) Brightness Sun altitude
Exits shadow 18:55:33 20° 131° (SE) 1,714 4.3 -15.7°
Maximum altitude 18:58:44 45° 68° (ENE) 1,045 3.3 -16.3°
Drops below altitude 10° 19:03:34 10° 357° (N) 2,321 5.7 -17.1°
Sets 19:05:58 0° 351° (N) 3,251 6.5 -17.5°
